Location: Blue Mountain Vista Observatory
(40.6992°N, 75.9422°W)
Time: 19:23:21
(UTC-04:00)

Amateur Radio Satellites - All Passes

Search period start: 26 August 2016 18:53
Search period end: 27 August 2016 18:53
Location: Blue Mountain Vista Observatory, 40.6992°N, 75.9422°W

Satellite Date Start Highest point End Downlink Frequencies (MHz)
Time Altitude Azimuth
Cubesat XI-IV 26 Aug 18:54:06 18:59:22 61° 258° (WSW) 19:04:41 437.490
Cosmos 2491 26 Aug 19:03:21 19:12:04 89° 277° (W) 19:20:54 435.465 / 435.565
CUTE-I 26 Aug 19:06:37 19:11:44 46° 261° (W) 19:16:52 437.470
CUBESAT XI-V 26 Aug 19:08:03 19:12:15 33° 290° (WNW) 19:16:28 437.345
BEESAT 2 26 Aug 19:10:59 19:14:42 35° 51° (NE) 19:18:23 435.950
NOAA 15 26 Aug 19:12:42 19:17:20 32° 263° (W) 19:22:02 137.62
LilacSat-2 26 Aug 19:18:10 19:21:23 25° 265° (W) 19:24:35 437.200
GOMX 1 26 Aug 19:24:45 19:29:14 33° 265° (W) 19:34:01 467.674
YUBILEINY 26 Aug 19:24:48 19:32:33 37° 275° (W) 19:40:16 435.215
HO-68 26 Aug 19:25:38 19:32:24 46° 66° (ENE) 19:39:11 435.675
BEESAT 3 26 Aug 19:31:37 19:35:35 72° 240° (WSW) 19:39:31 437.485
NOAA 18 26 Aug 19:36:28 19:41:13 29° 264° (W) 19:45:59 137.9125
DOVE 4 26 Aug 19:37:09 19:42:08 52° 261° (W) 19:47:19 437.250
SEEDS 26 Aug 19:39:08 19:42:28 24° 69° (ENE) 19:45:49 437.485
STRAND 1 26 Aug 19:56:59 20:01:48 41° 99° (E) 20:06:36 437.568
CANX-2 26 Aug 19:57:08 20:01:17 64° 75° (ENE) 20:05:27 2200.000
CUTE 1.7 + AOD 2 26 Aug 20:03:30 20:07:39 65° 75° (ENE) 20:11:49 437.475
AAUSAT CUBESAT 2 26 Aug 20:13:32 20:17:08 31° 71° (ENE) 20:20:46 437.432
COMPASS 1 26 Aug 20:19:57 20:23:54 46° 73° (ENE) 20:27:52 437.405
Cosmos 2504 26 Aug 20:25:46 20:32:07 35° 273° (W) 20:38:25 435.465 / 435.565
CINEMA 3 26 Aug 20:27:02 20:31:57 55° 261° (W) 20:36:52 145.822/145.860
Oscar 11 26 Aug 20:45:13 20:48:55 29° 70° (ENE) 20:52:38 145.826/435.025
BEESAT 2 26 Aug 20:49:18 20:52:18 20° 248° (WSW) 20:55:17 435.950
FUNcube-1 26 Aug 20:50:47 20:54:44 31° 70° (ENE) 20:58:36 145.935
CUBEBUG 2 26 Aug 20:53:16 20:57:59 85° 73° (ENE) 21:02:37 437.445
UWE-3 26 Aug 20:53:40 20:58:11 58° 74° (ENE) 21:02:36 435.000/436.395/437.385
PRISM 26 Aug 20:58:36 21:01:29 18° 94° (E) 21:04:22 437.425
Cosmos 2491 26 Aug 21:04:33 21:10:13 19° 298° (WNW) 21:15:58 435.465 / 435.565
PCSat 26 Aug 21:10:55 21:16:07 44° 55° (NE) 21:21:16 145.827
ZACube-1 26 Aug 21:11:04 21:15:28 56° 74° (ENE) 21:19:47 437.345
AIST 2 26 Aug 21:12:08 21:15:50 30° 49° (NE) 21:19:32 435.215
AIST 1 26 Aug 21:12:24 21:16:49 73° 264° (W) 21:21:10
HO-68 26 Aug 21:13:48 21:20:12 34° 263° (W) 21:26:39 435.675
SEEDS 26 Aug 21:14:30 21:18:03 27° 264° (W) 21:21:37 437.485
STRAND 1 26 Aug 21:36:41 21:40:43 24° 295° (WNW) 21:44:45 437.568
CANX-2 26 Aug 21:37:01 21:37:33 10° 271° (W) 21:38:04 2200.000
GONETS M04 26 Aug 21:44:25 21:49:02 15° 59° (ENE) 21:53:38
AAUSAT CUBESAT 2 26 Aug 21:49:35 21:52:39 20° 266° (W) 21:55:44 437.432
COMPASS 1 26 Aug 21:57:39 21:59:43 13° 269° (W) 22:01:47 437.405
DELFI C3 26 Aug 22:01:50 22:05:45 88° 77° (ENE) 22:09:43 145.870
HUMSAT D 26 Aug 22:07:50 22:11:50 47° 73° (ENE) 22:15:48 437.325/437.525
Oscar 11 26 Aug 22:21:33 22:25:02 24° 265° (W) 22:28:32 145.826/435.025
AUBIESAT-1 26 Aug 22:26:03 22:30:10 33° 64° (ENE) 22:34:17 437.475
FUNcube-1 26 Aug 22:27:25 22:30:59 23° 265° (W) 22:34:29 145.935
M-CUBED/EXP-1 PRIME 26 Aug 22:30:21 22:34:46 44° 67° (ENE) 22:39:15 437.505
ESTCUBE 1 26 Aug 22:31:47 22:34:32 16° 64° (ENE) 22:37:16 437.505/2401.250
UWE-3 26 Aug 22:32:41 22:34:56 13° 269° (W) 22:37:10 435.000/436.395/437.385
PRISM 26 Aug 22:33:03 22:36:54 36° 289° (WNW) 22:40:44 437.425
TIGRISAT 26 Aug 22:34:10 22:37:18 20° 93° (E) 22:40:25 435.000
AISAT 26 Aug 22:45:30 22:47:31 13° 62° (ENE) 22:49:33 437.250
ZACube-1 26 Aug 22:49:58 22:52:03 13° 269° (W) 22:54:08 437.345
AIST 2 26 Aug 22:50:42 22:54:14 27° 247° (WSW) 22:57:46 435.215
PCSat 26 Aug 22:54:49 22:59:15 26° 252° (WSW) 23:03:40 145.827
UNISAT 6 26 Aug 23:01:41 23:05:47 43° 98° (E) 23:09:50 437.425
50 SAT 26 Aug 23:11:54 23:14:21 18° 68° (ENE) 23:16:49 437.505
VELOX 1 26 Aug 23:30:36 23:34:38 35° 70° (ENE) 23:38:42 145.980
O/OREOS (USA 219) 26 Aug 23:31:48 23:35:38 25° 59° (ENE) 23:39:27 437.305
Cosmos 2499 26 Aug 23:32:38 23:39:29 50° 77° (ENE) 23:46:21 435.465 / 435.565
SO-50 26 Aug 23:33:29 23:37:38 28° 113° (ESE) 23:41:45 436.795
CUBEBUG 1 26 Aug 23:35:16 23:39:29 47° 72° (ENE) 23:43:45 437.445
ANTELSAT 26 Aug 23:38:36 23:42:54 72° 284° (WNW) 23:47:08 437.575/2403.000
GONETS M04 26 Aug 23:38:41 23:47:35 74° 81° (E) 23:56:24
HUMSAT D 26 Aug 23:45:34 23:47:41 14° 268° (W) 23:49:47 437.325/437.525
QB50P1 26 Aug 23:48:53 23:52:00 20° 94° (E) 23:55:04 145.935-145.965
DX 1 26 Aug 23:51:26 23:55:31 40° 71° (ENE) 23:59:37 434.975-435.025
SPROUT 26 Aug 23:58:09 00:02:03 34° 70° (ENE) 00:05:58 437.525
POPSAT HIP 1 26 Aug 23:58:30 00:01:59 25° 95° (E) 00:05:26 437.405
AUBIESAT-1 27 Aug 00:00:39 00:04:33 27° 260° (W) 00:08:30 437.475
RS-15 27 Aug 00:02:31 00:09:42 19° 97° (E) 00:17:04 29.354- 29.394
M-CUBED/EXP-1 PRIME 27 Aug 00:05:56 00:09:24 21° 262° (W) 00:12:55 437.505
CUSAT 1 27 Aug 00:05:56 00:08:44 88° 91° (E) 00:12:09 437.405
ESTCUBE 1 27 Aug 00:06:34 00:10:55 50° 260° (W) 00:15:18 437.505/2401.250
TIGRISAT 27 Aug 00:10:13 00:14:05 34° 290° (WNW) 00:17:55 435.000
AISAT 27 Aug 00:19:01 00:23:26 65° 258° (WSW) 00:27:54 437.250
JAS-2 27 Aug 00:22:38 00:28:42 32° 96° (E) 00:35:13 435.910
TISAT 1 27 Aug 00:22:46 00:25:07 15° 64° (ENE) 00:27:27 437.305
DUCHIFAT 1 27 Aug 00:27:02 00:31:06 46° 99° (E) 00:35:07 145.980
QB50P2 27 Aug 00:28:07 00:32:19 59° 101° (E) 00:36:27 145.880/145.840
POLYITAN 1 27 Aug 00:30:38 00:34:49 60° 101° (E) 00:38:58 437.675
UKube-1 27 Aug 00:33:37 00:37:55 87° 249° (WSW) 00:42:18 .
UNISAT 6 27 Aug 00:39:26 00:42:10 17° 295° (WNW) 00:44:52 437.425
NANOSAT C BR1 27 Aug 00:40:14 00:44:27 73° 102° (ESE) 00:48:37 145.865
50 SAT 27 Aug 00:44:40 00:47:44 27° 263° (W) 00:50:50 437.505
DANDE 27 Aug 00:53:32 00:56:06 86° 274° (W) 00:58:49 436.750
VELOX 1 27 Aug 01:07:49 01:11:10 21° 266° (W) 01:14:33 145.980
O/OREOS (USA 219) 27 Aug 01:10:57 01:15:03 32° 256° (WSW) 01:19:09 437.305
CUBEBUG 1 27 Aug 01:13:27 01:16:01 15° 268° (W) 01:18:37 437.445
SO-50 27 Aug 01:13:29 01:17:59 37° 310° (NW) 01:22:28 436.795
BEESAT 27 Aug 01:19:29 01:21:43 13° 61° (ENE) 01:23:57 436.000
QB50P1 27 Aug 01:24:02 01:27:51 33° 290° (WNW) 01:31:37 145.935-145.965
BUGSAT 1 27 Aug 01:26:23 01:30:34 85° 284° (WNW) 01:34:39 437.445
Cosmos 2499 27 Aug 01:26:30 01:32:10 27° 275° (W) 01:37:52 435.465 / 435.565
DX 1 27 Aug 01:28:54 01:31:51 18° 267° (W) 01:34:50 434.975-435.025
POPSAT HIP 1 27 Aug 01:34:09 01:37:43 27° 291° (WNW) 01:41:14 437.405
SPROUT 27 Aug 01:34:51 01:38:03 20° 266° (W) 01:41:17 437.525
GONETS M04 27 Aug 01:37:00 01:43:26 23° 280° (W) 01:49:52
PHONESAT 2.4 27 Aug 01:52:48 01:54:36 15° 150° (SSE) 01:56:24 2401.200-2431.200
TISAT 1 27 Aug 01:56:11 02:00:20 51° 260° (W) 02:04:29 437.305
Oscar 19 27 Aug 01:57:55 02:02:41 35° 97° (E) 02:07:24 437.125/150
ITUPSAT 1 27 Aug 02:03:49 02:08:07 35° 69° (ENE) 02:12:26 437.325
DUCHIFAT 1 27 Aug 02:03:59 02:06:23 15° 296° (WNW) 02:08:48 145.980
QB50P2 27 Aug 02:05:48 02:07:36 12° 297° (WNW) 02:09:22 145.880/145.840
JAS-2 27 Aug 02:07:21 02:13:46 50° 290° (WNW) 02:20:54 435.910
POLYITAN 1 27 Aug 02:08:24 02:10:06 12° 297° (WNW) 02:11:48 437.675
RS-15 27 Aug 02:08:34 02:20:03 81° 118° (ESE) 02:32:13 29.354- 29.394
NANOSAT C BR1 27 Aug 02:18:58 02:19:34 10° 298° (WNW) 02:20:10 145.865
SWISSCUBE 27 Aug 02:36:52 02:41:37 86° 78° (ENE) 02:46:25 437.505
BEESAT 27 Aug 02:54:09 02:58:53 71° 257° (WSW) 03:03:40 436.000
Gurwin Techsat 1B 27 Aug 03:00:35 03:05:52 63° 101° (ESE) 03:11:07 435.225
ITAMSAT 1 27 Aug 03:10:32 03:14:35 23° 94° (E) 03:18:37 435.822/435.867
MOZHAYETS 4 27 Aug 03:16:19 03:20:11 28° 68° (ENE) 03:24:01
KKS-1 27 Aug 03:17:23 03:20:54 23° 67° (ENE) 03:24:25 437.445
PHONESAT 2.4 27 Aug 03:27:37 03:30:34 55° 165° (SSE) 03:33:30 2401.200-2431.200
Oscar 19 27 Aug 03:37:26 03:41:51 29° 294° (WNW) 03:46:15 437.125/150
ITUPSAT 1 27 Aug 03:42:09 03:46:00 24° 265° (W) 03:49:51 437.325
STARS 27 Aug 03:55:22 03:59:08 28° 68° (ENE) 04:02:55 437.465
AO-7 27 Aug 04:02:43 04:10:14 36° 98° (E) 04:17:40 29.400- 29.500
RS-15 27 Aug 04:23:23 04:33:58 37° 325° (NW) 04:45:02 29.354- 29.394
CUBESAT XI-V 27 Aug 04:34:16 04:37:54 23° 67° (ENE) 04:41:33 437.345
Gurwin Techsat 1B 27 Aug 04:41:52 04:45:17 18° 298° (WNW) 04:48:41 435.225
ITAMSAT 1 27 Aug 04:49:20 04:54:12 42° 290° (WNW) 04:59:03 435.822/435.867
KKS-1 27 Aug 04:53:12 04:57:16 34° 262° (W) 05:01:21 437.445
MOZHAYETS 4 27 Aug 04:53:20 04:57:15 28° 264° (W) 05:01:12
PHONESAT 2.4 27 Aug 05:03:52 05:06:52 89° 169° (S) 05:09:52 2401.200-2431.200
AO-85 27 Aug 05:11:31 05:16:03 29° 113° (ESE) 05:20:25 145.980
Cosmos 2491 27 Aug 05:14:14 05:22:39 46° 75° (ENE) 05:31:02 435.465 / 435.565
STARS 27 Aug 05:31:40 05:35:25 26° 264° (W) 05:39:11 437.465
NOAA 15 27 Aug 05:50:27 05:52:11 11° 89° (E) 05:53:54 137.62
AO-7 27 Aug 05:55:14 06:03:10 51° 296° (WNW) 06:11:03 29.400- 29.500
HORYU 2 27 Aug 06:06:19 06:10:44 69° 102° (ESE) 06:15:07 437.375
BRITE-PL 27 Aug 06:08:26 06:13:37 35° 95° (E) 06:18:42 437.365/2234.400
CUBESAT XI-V 27 Aug 06:10:54 06:15:05 34° 263° (W) 06:19:19 437.345
NOAA 18 27 Aug 06:18:59 06:22:09 16° 91° (E) 06:25:19 137.9125
YUBILEINY 27 Aug 06:27:41 06:36:12 56° 90° (E) 06:44:44 435.215
PHONESAT 2.4 27 Aug 06:40:15 06:43:08 44° 198° (SSW) 06:46:00 2401.200-2431.200
RS-15 27 Aug 06:42:46 06:51:35 22° 359° (N) 07:00:32 29.354- 29.394
LilacSat-2 27 Aug 06:51:15 06:54:41 32° 97° (E) 06:58:05 437.200
AO-85 27 Aug 06:51:25 06:56:24 41° 309° (NW) 07:01:08 145.980
Cosmos 2504 27 Aug 07:09:30 07:17:01 37° 87° (E) 07:24:06 435.465 / 435.565
Cosmos 2491 27 Aug 07:11:22 07:19:18 39° 274° (W) 07:27:14 435.465 / 435.565
Cubesat XI-IV 27 Aug 07:11:33 07:16:47 55° 101° (E) 07:21:58 437.490
STRAND 1 27 Aug 07:12:26 07:17:26 57° 72° (ENE) 07:22:26 437.568
CUTE-I 27 Aug 07:23:36 07:28:55 72° 103° (ESE) 07:34:13 437.470
GOMX 1 27 Aug 07:26:15 07:31:44 83° 102° (ESE) 07:36:55 467.674
NOAA 15 27 Aug 07:27:14 07:32:35 84° 285° (WNW) 07:37:54 137.62
DOVE 4 27 Aug 07:36:45 07:41:40 47° 98° (E) 07:46:15 437.250
CANX-2 27 Aug 07:44:42 07:45:59 11° 90° (E) 07:47:16 2200.000
HORYU 2 27 Aug 07:45:02 07:46:42 12° 299° (WNW) 07:48:22 437.375
BRITE-PL 27 Aug 07:46:54 07:51:58 34° 292° (WNW) 07:56:57 437.365/2234.400
PRISM 27 Aug 07:48:50 07:50:47 13° 63° (ENE) 07:52:44 437.425
CUTE 1.7 + AOD 2 27 Aug 07:50:52 07:52:14 11° 90° (E) 07:53:37 437.475
AO-7 27 Aug 07:51:39 07:53:59 11° 318° (NW) 07:56:19 29.400- 29.500
NOAA 18 27 Aug 07:57:50 08:03:17 67° 288° (WNW) 08:08:41 137.9125
SO-50 27 Aug 08:05:00 08:08:50 25° 46° (NE) 08:12:34 436.795
PHONESAT 2.4 27 Aug 08:18:10 08:19:00 11° 213° (SSW) 08:19:51 2401.200-2431.200
CINEMA 3 27 Aug 08:22:41 08:26:52 36° 97° (E) 08:30:52 145.822/145.860
YUBILEINY 27 Aug 08:25:39 08:33:21 33° 290° (WNW) 08:41:07 435.215
LilacSat-2 27 Aug 08:26:17 08:28:44 17° 293° (WNW) 08:31:09 437.200
HO-68 27 Aug 08:40:48 08:47:43 49° 100° (E) 08:54:34 435.675
CUBEBUG 2 27 Aug 08:45:50 08:48:35 17° 92° (E) 08:51:17 437.445
UWE-3 27 Aug 08:46:33 08:47:19 10° 89° (E) 08:48:05 435.000/436.395/437.385
Cubesat XI-IV 27 Aug 08:52:40 08:56:25 20° 297° (WNW) 09:00:10 437.490
STRAND 1 27 Aug 08:53:47 08:56:57 16° 268° (W) 09:00:08 437.568
CUSAT 1 27 Aug 08:57:20 08:59:02 11° 64° (ENE) 09:00:48 437.405
SEEDS 27 Aug 08:57:49 09:01:53 47° 99° (E) 09:05:57 437.485
RS-15 27 Aug 08:58:22 09:09:22 35° 34° (NE) 09:20:17 29.354- 29.394
Cosmos 2504 27 Aug 09:02:09 09:10:11 46° 284° (WNW) 09:17:46 435.465 / 435.565
ANTELSAT 27 Aug 09:04:53 09:05:02 10° 61° (ENE) 09:05:10 437.575/2403.000
CUTE-I 27 Aug 09:05:18 09:08:21 16° 299° (WNW) 09:11:23 437.470
GOMX 1 27 Aug 09:06:19 09:08:58 14° 300° (WNW) 09:11:35 467.674
NOAA 15 27 Aug 09:09:48 09:11:30 12° 302° (WNW) 09:13:12 137.62
DOVE 4 27 Aug 09:15:16 09:18:55 20° 296° (WNW) 09:22:26 437.250
CANX-2 27 Aug 09:18:01 09:22:12 60° 285° (WNW) 09:26:23 2200.000
ISS 27 Aug 09:19:42 09:22:56 65° 141° (SE) 09:26:12 145.825
PRISM 27 Aug 09:21:38 09:25:37 53° 259° (W) 09:29:39 437.425
BEESAT 3 27 Aug 09:22:41 09:25:29 19° 112° (ESE) 09:28:18 437.485
CUTE 1.7 + AOD 2 27 Aug 09:24:16 09:28:26 59° 285° (WNW) 09:32:36 437.475
AAUSAT CUBESAT 2 27 Aug 09:30:41 09:34:49 61° 100° (E) 09:38:56 437.432
TIGRISAT 27 Aug 09:32:36 09:35:51 19° 66° (ENE) 09:39:04 435.000
COMPASS 1 27 Aug 09:38:07 09:42:18 85° 286° (WNW) 09:46:30 437.405
AIST 1 27 Aug 09:40:57 09:45:15 66° 95° (E) 09:49:36
DELFI C3 27 Aug 09:41:44 09:43:03 11° 91° (E) 09:44:22 145.870
SO-50 27 Aug 09:45:09 09:49:26 40° 244° (WSW) 09:53:37 436.795
UNISAT 6 27 Aug 09:59:51 10:04:07 38° 71° (ENE) 10:08:19 437.425
CINEMA 3 27 Aug 10:00:22 10:03:44 21° 294° (WNW) 10:06:59 145.822/145.860
Oscar 11 27 Aug 10:07:54 10:12:11 61° 101° (E) 10:16:27 145.826/435.025
FUNcube-1 27 Aug 10:14:39 10:18:48 67° 101° (E) 10:22:54 145.935
UWE-3 27 Aug 10:20:04 10:24:12 60° 286° (WNW) 10:28:16 435.000/436.395/437.385
CUBEBUG 2 27 Aug 10:21:27 10:25:23 38° 289° (WNW) 10:29:14 437.445
HO-68 27 Aug 10:28:56 10:35:10 33° 298° (WNW) 10:41:22 435.675
SEEDS 27 Aug 10:34:46 10:37:11 15° 295° (WNW) 10:39:37 437.485
CUSAT 1 27 Aug 10:35:27 10:41:47 65° 79° (E) 10:49:26 437.405
ZACube-1 27 Aug 10:35:52 10:40:00 63° 285° (WNW) 10:44:04 437.345
ANTELSAT 27 Aug 10:36:25 10:41:03 87° 252° (WSW) 10:45:37 437.575/2403.000
BEESAT 2 27 Aug 10:39:37 10:43:32 71° 120° (ESE) 10:47:31 435.950
QB50P1 27 Aug 10:41:42 10:44:15 16° 65° (ENE) 10:46:47 145.935-145.965
GONETS M04 27 Aug 10:47:24 10:52:08 16° 76° (ENE) 10:56:52
POPSAT HIP 1 27 Aug 10:51:04 10:54:07 19° 66° (ENE) 10:57:11 437.405
ISS 27 Aug 10:57:02 10:59:39 22° 338° (NNW) 11:02:18 145.825
BEESAT 3 27 Aug 10:59:17 11:02:54 36° 308° (NW) 11:06:34 437.485
TIGRISAT 27 Aug 11:07:51 11:12:14 42° 261° (W) 11:16:34 435.000
AAUSAT CUBESAT 2 27 Aug 11:08:13 11:09:47 12° 296° (WNW) 11:11:20 437.432
RS-15 27 Aug 11:11:08 11:23:35 87° 240° (WSW) 11:35:45 29.354- 29.394
DELFI C3 27 Aug 11:14:18 11:18:11 52° 286° (WNW) 11:22:05 145.870
DUCHIFAT 1 27 Aug 11:18:29 11:22:19 33° 70° (ENE) 11:26:09 145.980
QB50P2 27 Aug 11:20:11 11:24:13 42° 72° (ENE) 11:28:16 145.880/145.840
AIST 1 27 Aug 11:22:20 11:23:21 11° 293° (WNW) 11:24:21
POLYITAN 1 27 Aug 11:22:41 11:26:45 43° 72° (ENE) 11:30:48 437.675
HUMSAT D 27 Aug 11:26:40 11:30:46 85° 280° (W) 11:34:52 437.325/437.525
DANDE 27 Aug 11:27:06 11:32:27 67° 80° (E) 11:39:27 436.750
NANOSAT C BR1 27 Aug 11:31:42 11:35:50 50° 73° (ENE) 11:39:58 145.865
UNISAT 6 27 Aug 11:37:30 11:40:55 20° 266° (W) 11:44:19 437.425
AUBIESAT-1 27 Aug 11:40:17 11:43:19 20° 98° (E) 11:46:10 437.475
M-CUBED/EXP-1 PRIME 27 Aug 11:45:08 11:48:46 29° 101° (E) 11:52:07 437.505
Oscar 11 27 Aug 11:45:55 11:47:47 13° 297° (WNW) 11:49:39 145.826/435.025
PCSat 27 Aug 11:52:15 11:57:18 42° 112° (ESE) 12:02:23 145.827
FUNcube-1 27 Aug 11:53:36 11:54:28 11° 298° (WNW) 11:55:19 145.935
ESTCUBE 1 27 Aug 11:59:19 12:03:26 33° 97° (E) 12:07:33 437.505/2401.250
Cosmos 2499 27 Aug 12:08:14 12:15:50 43° 89° (E) 12:22:55 435.465 / 435.565
AISAT 27 Aug 12:09:59 12:13:37 24° 95° (E) 12:17:13 437.250
50 SAT 27 Aug 12:13:00 12:15:53 22° 95° (E) 12:18:45 437.505
BUGSAT 1 27 Aug 12:15:13 12:19:25 62° 74° (ENE) 12:23:37 437.445
QB50P1 27 Aug 12:15:30 12:19:37 47° 261° (W) 12:23:47 145.935-145.965
CUSAT 1 27 Aug 12:18:27 12:23:30 24° 271° (W) 12:29:14 437.405
BEESAT 2 27 Aug 12:19:49 12:21:50 13° 318° (NW) 12:23:52 435.950
JAS-2 27 Aug 12:19:59 12:25:09 75° 74° (ENE) 12:30:39 435.910
UKube-1 27 Aug 12:22:15 12:24:53 16° 93° (E) 12:27:29 .
POPSAT HIP 1 27 Aug 12:25:40 12:29:38 37° 262° (W) 12:33:38 437.405
ISS 27 Aug 12:35:36 12:37:04 12° 359° (N) 12:38:32 145.825
GONETS M04 27 Aug 12:38:45 12:47:29 85° 97° (E) 12:56:22
Gurwin Techsat 1B 27 Aug 12:45:05 12:47:27 13° 59° (ENE) 12:49:51 435.225
AIST 2 27 Aug 12:47:00 12:51:04 65° 119° (ESE) 12:55:10 435.215
DUCHIFAT 1 27 Aug 12:54:53 12:58:03 20° 266° (W) 13:01:15 145.980
VELOX 1 27 Aug 12:56:45 13:01:14 75° 102° (ESE) 13:05:41 145.980
QB50P2 27 Aug 12:57:30 13:00:12 16° 267° (W) 13:02:54 145.880/145.840
CUBEBUG 1 27 Aug 13:00:02 13:04:29 80° 284° (WNW) 13:08:53 437.445
POLYITAN 1 27 Aug 13:00:04 13:02:44 16° 268° (W) 13:05:24 437.675
NANOSAT C BR1 27 Aug 13:09:42 13:11:50 13° 269° (W) 13:13:58 145.865
DANDE 27 Aug 13:11:16 13:15:02 18° 270° (W) 13:19:23 436.750
AUBIESAT-1 27 Aug 13:14:16 13:17:50 29° 296° (WNW) 13:21:09 437.475
Oscar 19 27 Aug 13:14:18 13:19:16 49° 71° (ENE) 13:24:16 437.125/150
DX 1 27 Aug 13:15:32 13:19:57 80° 105° (ESE) 13:24:19 434.975-435.025
AO-7 27 Aug 13:16:12 13:18:17 11° 42° (NE) 13:20:22 29.400- 29.500
SPROUT 27 Aug 13:19:39 13:23:57 69° 102° (ESE) 13:28:11 437.525
M-CUBED/EXP-1 PRIME 27 Aug 13:19:52 13:23:06 22° 299° (WNW) 13:26:09 437.505
RS-15 27 Aug 13:25:42 13:34:18 23° 261° (W) 13:42:48 29.354- 29.394
PCSat 27 Aug 13:36:05 13:40:48 30° 310° (NW) 13:45:33 145.827
ESTCUBE 1 27 Aug 13:36:28 13:40:04 23° 293° (WNW) 13:43:38 437.505/2401.250
TISAT 1 27 Aug 13:40:47 13:44:13 24° 95° (E) 13:47:36 437.305
O/OREOS (USA 219) 27 Aug 13:43:52 13:47:43 28° 103° (ESE) 13:51:35 437.305
AO-85 27 Aug 13:43:56 13:47:12 20° 44° (NE) 13:50:17 145.980
AISAT 27 Aug 13:46:08 13:50:05 31° 291° (WNW) 13:53:59 437.250
50 SAT 27 Aug 13:46:29 13:49:23 22° 291° (WNW) 13:52:16 437.505
BUGSAT 1 27 Aug 13:54:01 13:55:10 11° 270° (W) 13:56:18 437.445
UKube-1 27 Aug 13:57:00 14:01:09 45° 288° (WNW) 14:05:16 .
Cosmos 2499 27 Aug 14:01:34 14:08:58 37° 286° (WNW) 14:15:56 435.465 / 435.565
JAS-2 27 Aug 14:09:12 14:11:02 12° 273° (W) 14:12:54 435.910
ISS 27 Aug 14:12:03 14:14:32 19° 19° (NNE) 14:16:59 145.825
Gurwin Techsat 1B 27 Aug 14:21:19 14:26:39 86° 256° (WSW) 14:32:01 435.225
AIST 2 27 Aug 14:27:30 14:29:58 15° 318° (NW) 14:32:26 435.215
ITAMSAT 1 27 Aug 14:28:01 14:32:40 35° 68° (ENE) 14:37:19 435.822/435.867
VELOX 1 27 Aug 14:35:40 14:37:04 11° 299° (WNW) 14:38:28 145.980
SWISSCUBE 27 Aug 14:38:00 14:41:42 22° 94° (E) 14:45:23 437.505
GONETS M04 27 Aug 14:39:18 14:45:28 21° 297° (WNW) 14:51:43
DX 1 27 Aug 14:54:50 14:55:28 10° 300° (WNW) 14:56:05 434.975-435.025
BEESAT 27 Aug 14:54:50 14:59:00 29° 96° (E) 15:03:08 436.000
Oscar 19 27 Aug 14:55:10 14:58:51 20° 267° (W) 15:02:33 437.125/150
SPROUT 27 Aug 14:58:01 14:59:17 11° 298° (WNW) 15:00:33 437.525
AO-7 27 Aug 15:01:08 15:09:03 50° 63° (ENE) 15:16:58 29.400- 29.500
TISAT 1 27 Aug 15:16:14 15:19:49 28° 291° (WNW) 15:23:23 437.305
O/OREOS (USA 219) 27 Aug 15:23:12 15:27:03 27° 301° (WNW) 15:30:56 437.305
AO-85 27 Aug 15:23:52 15:27:51 42° 244° (WSW) 15:31:34 145.980
ITUPSAT 1 27 Aug 15:41:37 15:46:25 87° 107° (ESE) 15:51:12 437.325
ISS 27 Aug 15:48:03 15:51:21 87° 210° (SSW) 15:54:37 145.825
ITAMSAT 1 27 Aug 16:07:43 16:12:09 28° 264° (W) 16:16:35 435.822/435.867
SWISSCUBE 27 Aug 16:15:12 16:19:36 38° 290° (WNW) 16:23:59 437.505
BEESAT 27 Aug 16:32:37 16:36:42 29° 292° (WNW) 16:40:46 436.000
YUBILEINY 27 Aug 16:38:46 16:45:54 27° 67° (ENE) 16:52:55 435.215
KKS-1 27 Aug 16:43:57 16:48:15 45° 99° (E) 16:52:30 437.445
MOZHAYETS 4 27 Aug 16:47:39 16:52:13 67° 101° (ESE) 16:56:46
AO-7 27 Aug 16:54:20 17:01:56 38° 262° (W) 17:09:34 29.400- 29.500
Cubesat XI-IV 27 Aug 16:57:22 16:59:19 12° 58° (ENE) 17:01:15 437.490
GOMX 1 27 Aug 16:59:35 17:01:09 11° 58° (ENE) 17:02:42 467.674
HORYU 2 27 Aug 17:03:42 17:08:06 61° 74° (ENE) 17:12:31 437.375
CUTE-I 27 Aug 17:08:05 17:11:05 15° 60° (ENE) 17:14:05 437.470
NOAA 15 27 Aug 17:09:17 17:12:59 20° 63° (ENE) 17:16:43 137.62
BRITE-PL 27 Aug 17:18:53 17:23:14 34° 68° (ENE) 17:27:56 437.365/2234.400
STARS 27 Aug 17:20:28 17:24:48 55° 100° (E) 17:29:05 437.465
ITUPSAT 1 27 Aug 17:22:20 17:23:31 11° 301° (WNW) 17:24:42 437.325
LilacSat-2 27 Aug 17:33:45 17:36:15 17° 67° (ENE) 17:38:46 437.200
BEESAT 3 27 Aug 17:40:02 17:42:07 14° 42° (NE) 17:44:12 437.485
NOAA 18 27 Aug 17:44:15 17:49:01 31° 66° (ENE) 17:53:48 137.9125
CUBESAT XI-V 27 Aug 18:07:02 18:11:41 59° 100° (E) 18:16:19 437.345
Cosmos 2491 27 Aug 18:14:50 18:23:10 53° 90° (E) 18:31:34 435.465 / 435.565
KKS-1 27 Aug 18:21:30 18:24:27 18° 296° (WNW) 18:27:24 437.445
MOZHAYETS 4 27 Aug 18:26:47 18:28:49 13° 298° (WNW) 18:30:51
GOMX 1 27 Aug 18:33:11 18:38:14 83° 76° (ENE) 18:43:38 467.674
Cubesat XI-IV 27 Aug 18:33:12 18:38:34 87° 71° (ENE) 18:43:56 437.490
YUBILEINY 27 Aug 18:34:43 18:43:24 67° 267° (W) 18:51:59 435.215
DOVE 4 27 Aug 18:40:52 18:45:47 47° 72° (ENE) 18:50:52 437.250
HORYU 2 27 Aug 18:43:14 18:45:02 12° 269° (W) 18:46:50 437.375
